• In Germany
  • List of Countries
  • For 7 days
  • Water Temperature
  • Satellite Maps
  • Weather Map
  • Weather Widgets
  • user-avatar
    Login

    Hourly Weather Kapan

    Today, 17 November, Friday

    Time Temperature Precipitation Wind Pressure Humidity
    00:00 +9°C° 0 mm 1 mps 688 mmHg 56%
    01:00 +9°C° 0 mm 1 mps 688 mmHg 57%
    02:00 +9°C° 0 mm 1 mps 688 mmHg 58%
    03:00 +8°C° 0 mm 1 mps 688 mmHg 55%
    04:00 +7°C° 0 mm 0 mps 688 mmHg 57%
    05:00 +7°C° 0 mm 0 mps 688 mmHg 58%
    06:00 +7°C° 0 mm 0 mps 688 mmHg 59%
    07:00 +9°C° 0 mm 1 mps 688 mmHg 55%
    08:00 +11°C° 0 mm 1 mps 689 mmHg 52%
    09:00 +12°C° 0 mm 1 mps 689 mmHg 49%
    10:00 +13°C° 0 mm 1 mps 689 mmHg 46%
    11:00 +14°C° 0 mm 1 mps 689 mmHg 44%
    12:00 +15°C° 0 mm 2 mps 689 mmHg 41%
    13:00 +15°C° 0 mm 2 mps 688 mmHg 43%
    14:00 +15°C° 0 mm 2 mps 688 mmHg 45%
    15:00 +15°C° 0 mm 2 mps 688 mmHg 47%
    16:00 +13°C° 0 mm 1 mps 688 mmHg 55%
    17:00 +12°C° 0 mm 1 mps 688 mmHg 63%
    18:00 +10°C° 0 mm 1 mps 688 mmHg 72%
    19:00 +10°C° 0 mm 1 mps 688 mmHg 73%
    20:00 +10°C° 0 mm 1 mps 688 mmHg 75%
    21:00 +10°C° 0 mm 1 mps 688 mmHg 77%
    22:00 +10°C° 0 mm 1 mps 688 mmHg 78%
    23:00 +9°C° 0 mm 1 mps 688 mmHg 79%

    Tomorrow, 18 November, Saturday

    Time Temperature Precipitation Wind Pressure Humidity
    00:00 +9°C° 0 mm 1 mps 688 mmHg 80%
    01:00 +9°C° 0 mm 1 mps 688 mmHg 80%
    02:00 +9°C° 0 mm 1 mps 688 mmHg 80%
    03:00 +9°C° 0 mm 1 mps 688 mmHg 80%
    04:00 +8°C° 0 mm 1 mps 688 mmHg 79%
    05:00 +8°C° 0 mm 1 mps 688 mmHg 79%
    06:00 +8°C° 0 mm 1 mps 688 mmHg 78%
    07:00 +9°C° 0 mm 1 mps 688 mmHg 72%
    08:00 +11°C° 0 mm 1 mps 689 mmHg 65%
    09:00 +12°C° 0 mm 1 mps 689 mmHg 59%
    10:00 +13°C° 0 mm 1 mps 689 mmHg 54%
    11:00 +14°C° 0 mm 2 mps 689 mmHg 50%
    12:00 +15°C° 0 mm 2 mps 689 mmHg 45%
    13:00 +15°C° 0 mm 2 mps 688 mmHg 46%
    14:00 +15°C° 0 mm 2 mps 688 mmHg 47%
    15:00 +15°C° 0 mm 2 mps 688 mmHg 47%
    16:00 +14°C° 0 mm 2 mps 688 mmHg 52%
    17:00 +12°C° 0 mm 1 mps 688 mmHg 56%
    18:00 +11°C° 0 mm 1 mps 687 mmHg 61%
    19:00 +11°C° 0 mm 1 mps 687 mmHg 57%
    20:00 +11°C° 0 mm 1 mps 687 mmHg 53%
    21:00 +11°C° 0 mm 1 mps 687 mmHg 50%
    22:00 +10°C° 0 mm 1 mps 687 mmHg 47%
    23:00 +10°C° 0 mm 1 mps 687 mmHg 45%

    Day after tomorrow, 19 November, Sunday

    Time Temperature Precipitation Wind Pressure Humidity
    00:00 +10°C° 0 mm 1 mps 687 mmHg 43%
    01:00 +10°C° 0 mm 1 mps 687 mmHg 41%
    02:00 +10°C° 0 mm 1 mps 687 mmHg 40%
    03:00 +9°C° 0 mm 2 mps 686 mmHg 39%
    04:00 +9°C° 0 mm 2 mps 686 mmHg 38%
    05:00 +9°C° 0 mm 2 mps 686 mmHg 38%
    06:00 +9°C° 0 mm 2 mps 686 mmHg 38%
    07:00 +12°C° 0 mm 1 mps 686 mmHg 35%
    08:00 +13°C° 0 mm 1 mps 687 mmHg 33%
    09:00 +15°C° 0 mm 1 mps 687 mmHg 31%
    10:00 +16°C° 0 mm 1 mps 687 mmHg 29%
    11:00 +17°C° 0 mm 2 mps 687 mmHg 28%
    12:00 +18°C° 0 mm 2 mps 686 mmHg 26%
    13:00 +18°C° 0 mm 2 mps 686 mmHg 28%
    14:00 +17°C° 0 mm 2 mps 685 mmHg 30%
    15:00 +17°C° 0 mm 2 mps 685 mmHg 32%
    16:00 +16°C° 0 mm 2 mps 685 mmHg 35%
    17:00 +15°C° 0 mm 2 mps 685 mmHg 39%
    18:00 +13°C° 0 mm 2 mps 685 mmHg 42%
    19:00 +13°C° 0 mm 2 mps 685 mmHg 42%
    20:00 +13°C° 0 mm 2 mps 685 mmHg 42%
    21:00 +13°C° 0 mm 2 mps 685 mmHg 42%
    22:00 +13°C° 0 mm 2 mps 685 mmHg 43%
    23:00 +12°C° 0 mm 2 mps 685 mmHg 44%

    20 November, Monday

    Time Temperature Precipitation Wind Pressure Humidity
    00:00 +11°C° 0 mm 3 mps 684 mmHg 45%
    01:00 +11°C° 0 mm 3 mps 684 mmHg 46%
    02:00 +11°C° 0 mm 3 mps 684 mmHg 47%
    03:00 +10°C° 0 mm 3 mps 684 mmHg 48%
    04:00 +10°C° 0 mm 3 mps 684 mmHg 50%
    05:00 +10°C° 0 mm 3 mps 684 mmHg 51%
    06:00 +10°C° 0 mm 3 mps 684 mmHg 52%
    07:00 +11°C° 0 mm 3 mps 685 mmHg 49%
    08:00 +13°C° 0 mm 3 mps 685 mmHg 46%
    09:00 +14°C° 0 mm 3 mps 685 mmHg 42%
    10:00 +16°C° 0 mm 3 mps 685 mmHg 40%
    11:00 +17°C° 0 mm 3 mps 685 mmHg 37%
    12:00 +18°C° 0 mm 3 mps 685 mmHg 35%
    13:00 +18°C° 0 mm 3 mps 684 mmHg 35%
    14:00 +18°C° 0 mm 2 mps 684 mmHg 36%
    15:00 +18°C° 0 mm 2 mps 683 mmHg 36%
    16:00 +17°C° 0 mm 2 mps 683 mmHg 41%
    17:00 +15°C° 0 mm 1 mps 683 mmHg 45%
    18:00 +13°C° 0 mm 1 mps 683 mmHg 50%
    19:00 +13°C° 0 mm 1 mps 683 mmHg 51%
    20:00 +13°C° 0 mm 1 mps 682 mmHg 52%
    21:00 +13°C° 0 mm 2 mps 682 mmHg 52%
    22:00 +12°C° 0 mm 2 mps 682 mmHg 53%
    23:00 +12°C° 0 mm 2 mps 682 mmHg 53%

    21 November, Tuesday

    Time Temperature Precipitation Wind Pressure Humidity
    00:00 +12°C° 0 mm 2 mps 682 mmHg 54%
    01:00 +12°C° 0 mm 2 mps 681 mmHg 55%
    02:00 +12°C° 0 mm 2 mps 681 mmHg 55%
    03:00 +12°C° 0 mm 2 mps 681 mmHg 56%
    04:00 +12°C° 0 mm 2 mps 681 mmHg 58%
    05:00 +12°C° 0 mm 1 mps 681 mmHg 59%
    06:00 +11°C° 0 mm 1 mps 681 mmHg 60%
    07:00 +13°C° 0 mm 1 mps 681 mmHg 57%
    08:00 +14°C° 0 mm 1 mps 681 mmHg 54%
    09:00 +15°C° 0 mm 1 mps 681 mmHg 50%
    10:00 +16°C° 0 mm 1 mps 681 mmHg 48%
    11:00 +18°C° 0 mm 1 mps 681 mmHg 47%
    12:00 +17°C° 0 mm 2 mps 681 mmHg 45%
    13:00 +17°C° 0.1 mm 2 mps 680 mmHg 46%
    14:00 +17°C° 0.1 mm 2 mps 680 mmHg 48%
    15:00 +17°C° 0.1 mm 2 mps 679 mmHg 49%
    16:00 +15°C° 0 mm 1 mps 679 mmHg 53%
    17:00 +14°C° 0 mm 1 mps 679 mmHg 57%
    18:00 +13°C° 0 mm 1 mps 679 mmHg 61%
    19:00 +13°C° 0 mm 1 mps 679 mmHg 62%
    20:00 +13°C° 0 mm 1 mps 679 mmHg 62%
    21:00 +13°C° 0 mm 2 mps 679 mmHg 62%
    22:00 +13°C° 0 mm 2 mps 679 mmHg 62%
    23:00 +13°C° 0 mm 2 mps 679 mmHg 62%

    22 November, Wednesday

    Time Temperature Precipitation Wind Pressure Humidity
    00:00 +13°C° 0 mm 2 mps 679 mmHg 63%
    01:00 +12°C° 0 mm 2 mps 679 mmHg 63%
    02:00 +12°C° 0 mm 1 mps 678 mmHg 64%
    03:00 +12°C° 0 mm 1 mps 678 mmHg 65%
    04:00 +12°C° 0 mm 1 mps 678 mmHg 65%
    05:00 +11°C° 0 mm 1 mps 678 mmHg 66%
    06:00 +11°C° 0 mm 1 mps 678 mmHg 67%
    07:00 +12°C° 0.1 mm 1 mps 678 mmHg 64%
    08:00 +13°C° 0.1 mm 1 mps 679 mmHg 61%
    09:00 +13°C° 0.1 mm 0 mps 679 mmHg 58%
    10:00 +14°C° 0.4 mm 1 mps 679 mmHg 59%
    11:00 +14°C° 0.4 mm 1 mps 679 mmHg 60%
    12:00 +14°C° 0.4 mm 1 mps 678 mmHg 61%
    13:00 +13°C° 0.6 mm 1 mps 678 mmHg 63%
    14:00 +13°C° 0.6 mm 1 mps 678 mmHg 65%
    15:00 +13°C° 0.6 mm 1 mps 678 mmHg 67%
    16:00 +12°C° 0.4 mm 1 mps 678 mmHg 71%
    17:00 +11°C° 0.4 mm 1 mps 678 mmHg 75%
    18:00 +11°C° 0.4 mm 1 mps 679 mmHg 78%
    19:00 +10°C° 0.6 mm 1 mps 679 mmHg 80%
    20:00 +10°C° 0.6 mm 1 mps 679 mmHg 81%
    21:00 +9°C° 0.6 mm 1 mps 679 mmHg 82%
    22:00 +9°C° 0.6 mm 1 mps 680 mmHg 82%
    23:00 +9°C° 0.6 mm 1 mps 680 mmHg 83%
    Show more